Regional Weather Roundup
Issued by NWS

Home | Current Version | Previous Version | Text Only | Print | Product List | Glossary Off
Versions: 1 2 3 4 5 6 7 8 9 10 11 12 13 14 15 16 17 18 19 20 21 22 23 24 25 26 27 28 29 30 31 32 33 34 35 36 37 38 39 40 41 42 43 44 45 46 47 48 49 50

000
ASUS43 KMKX 262021
RWRWI

WISCONSIN REGIONAL WEATHER ROUNDUP
NATIONAL WEATHER SERVICE MILWAUKEE/SULLIVAN WI
200 PM CST THU FEB 26 2015

NOTE: "FAIR" INDICATES FEW OR NO CLOUDS BELOW 12,000 FEET WITH NO
SIGNIFICANT WEATHER AND/OR OBSTRUCTIONS TO VISIBILITY.

WIZ001-002-006>008-014>016-023>028-262100-
NORTHWEST WISCONSIN

CITY           SKY/WX    TMP DP  RH WIND       PRES   REMARKS
SUPERIOR ARPT  SUNNY      9  -8  46 W6G16     30.42F WCI  -1
ASHLAND        PTSUNNY    9  -7  48 NW6       30.38F WCI  -1
HAYWARD        SUNNY      8 -12  39 VRB7      30.34F WCI  -3
SIREN          SUNNY      8 -10  43 N8G16     30.40S WCI  -4
CUMBERLAND     SUNNY      9 -11  40 NW8       30.35F WCI  -4
RICE LAKE      SUNNY      8 -10  44 NW7       30.38F WCI  -3
CHETEK         SUNNY      8  -8  47 NW9       30.37F WCI  -5
LADYSMITH      MOSUNNY    9  -6  50 N13       30.34S WCI  -6
EAU CLAIRE     SUNNY      9  -8  46 N10       30.38F WCI  -5
MENOMONIE      MOSUNNY   10  -7  46 W13       30.39F WCI  -5
NEW RICHMOND   SUNNY      8  -8  48 NW10      30.41F WCI  -7
OSCEOLA        SUNNY      9  -8  47 N12       30.45F WCI  -6
$$

WIZ003>005-009-010-017-018-262100-
NORTH CENTRAL WISCONSIN

CITY           SKY/WX    TMP DP  RH WIND       PRES   REMARKS
MANITOWISH WTR MOSUNNY    5  -8  53 N8        30.25S WCI  -8
ARBOR VITAE    SUNNY      7  -7  51 N12       30.24F WCI  -8
WOODRUFF       SUNNY      7  -7  51 N12       30.24F WCI  -8
RHINELANDER    MOSUNNY    7  -8  50 NW9       30.23F WCI  -7
EAGLE RIVER    SUNNY      6 -10  47 NW9       30.22F WCI  -7
LAND O LAKES   PTSUNNY    8  -9  46 W6        30.23S WCI  -2
PHILLIPS       MOSUNNY    7  -8  49 NW10G16   30.27S WCI  -7
TOMAHAWK       SUNNY      8  -9  44 N3        30.26F
MEDFORD        PTSUNNY    8  -6  52 NW9       30.27S WCI  -5
MERRILL        MOSUNNY   10  -8  43 N6        30.26F WCI   1
$$

WIZ029-030-035-036-043>047-262100-
CENTRAL WISCONSIN

CITY           SKY/WX    TMP DP  RH WIND       PRES   REMARKS
WAUSAU         SUNNY      9  -7  48 NW13      30.27F WCI  -7
MOSINEE        MOSUNNY    9  -6  52 N10       30.28F WCI  -6
MARSHFIELD     MOSUNNY    9  -7  48 NW12      30.30S WCI  -6
STEVENS POINT  MOSUNNY    8  -9  46 NW6       30.30S WCI  -2
WAUPACA        MOSUNNY   15  -7  37 NW9       30.31S WCI   3
WAUTOMA        MOSUNNY   10  -7  46 N8        30.32S WCI  -2
WISC RAPIDS    SUNNY      8  -8  48 NW10      30.33S WCI  -6
CAMP DOUGLAS   MOSUNNY   14  -4  44 N10       30.32F WCI   1
$$

WIZ011>013-019>022-031-037>040-048>050-262100-
NORTHEAST WISCONSIN

CITY           SKY/WX    TMP DP  RH WIND       PRES   REMARKS
ANTIGO         SUNNY      8  -8  48 N8        30.23F WCI  -5
SHAWANO        PTSUNNY   15  -6  39 CALM      30.30S
OCONTO         PTSUNNY   11  -5  48 N9        30.31F WCI  -2
STURGEON BAY   SUNNY      9  -4  56 N6        30.32S WCI  -1
GREEN BAY      MOSUNNY   11  -1  58 NW13      30.31F WCI  -4
MANITOWOC      SUNNY     11  -2  56 N10       30.31S WCI  -3
APPLETON       PTSUNNY   10  -6  48 N8        30.29F WCI  -1
CLINTONVILLE   CLOUDY    12  -6  44 NW7       30.30F WCI   2
OSHKOSH        CLOUDY    11  -3  53 NW7G16    30.30S WCI   0
$$

WIZ032>034-041-042-053>061-262100-
SOUTHWEST WISCONSIN

CITY           SKY/WX    TMP DP  RH WIND       PRES   REMARKS
LA CROSSE      PTSUNNY   14  -2  49 NW10      30.39S WCI   1
SPARTA         MOSUNNY   13  -4  46 NW8       30.35F WCI   1
VIROQUA        PTSUNNY   10  -4  51 NW9G16    30.30F WCI  -3
BOSCOBEL       MIX PCPN  14  -5  42 NW10      30.36S WCI   1
PRAIRIE DU CHI SUNNY     12  -8  40 NW9G17    30.37S WCI   0
PLATTEVILLE    SUNNY     11  -4  50 N10       30.30S WCI  -2
$$

WIZ056-057-062-063-064-067-068-262100-
SOUTH CENTRAL WISCONSIN

CITY           SKY/WX    TMP DP  RH WIND       PRES   REMARKS
REEDSBURG      PTSUNNY   11  -4  50 N10       30.31F WCI  -3
BARABOO/DELLS  MOSUNNY   11  -7  44 N5        30.29F WCI   3
LONE ROCK      SUNNY     13  -5  44 N7        30.34F WCI   3
MINERAL POINT  SUNNY     14  -8  37 N8        30.29R WCI   3
MADISON        PTSUNNY   12  -5  46 NE10      30.30S WCI  -1
MIDDLETON      SUNNY     15  -5  41 N10       30.30F WCI   2
WATERTOWN      SUNNY     12  -2  52 NW14      30.29S WCI  -3
MONROE         SUNNY     14  -4  44 N13       30.27S WCI   0
JANESVILLE     SUNNY     14  -2  48 NW15      30.29S WCI  -1
$$

WIZ051-052-058>065-066-070>072-262100-
SOUTHEAST WISCONSIN

CITY           SKY/WX    TMP DP  RH WIND       PRES   REMARKS
MILWAUKEE      PTSUNNY   16  -1  47 NW8       30.27S WCI   5
WAUKESHA       SUNNY     10  -6  48 NW14      30.27  WCI  -5
MILWAUKEE/TIMM SUNNY     14  -6  41 NW10      30.28S WCI   1
RACINE         SUNNY     15   1  53 N14       30.28S WCI   0
BURLINGTON     SUNNY     12  -5  46 N13       30.27S WCI  -3
KENOSHA        SUNNY     15  -1  49 NW10      30.26R WCI   2
FOND DU LAC    SUNNY     10  -4  53 NE13      30.30F WCI  -5
SHEBOYGAN      SUNNY     11  -4  51 N9        30.29S WCI  -2
WEST BEND      SUNNY     12  -6  44 NW12      30.28R WCI  -2
JUNEAU         SUNNY     10  -4  51 NW8       30.30S WCI  -1
$$

LSZ147-162-262100-
LAKE SUPERIOR

STATION/POSITION TIME  TEMP    WIND        PRES    WAVE
                       AIR SEA DIR/SP/G            HT/PER
                 (UTC) (F)     (DEG/KT/KT) (MB)    (FT/S)
DEVILS ISLAND    2000    6     260/  9/ 13 1030.8F
PORT WING        1900    6     270/  6/ 13 1030.1F
SAXON HARBOR     1900    6     330/  3/  6 1029.5F
$$

LMZ867-665-643>646-262100-
LAKE MICHIGAN

STATION/POSITION TIME  TEMP    WIND        PRES    WAVE
                       AIR SEA DIR/SP/G            HT/PER
                 (UTC) (F)     (DEG/KT/KT) (MB)    (FT/S)
NORTHPORT PIER   1921    8      20/  6/ 11 1026.4F
SISTER BAY       1813   13     360/ 12/ 18   N/A
KEWAUNEE LAKESHO 1900    8      20/  8/ 14 1025.6F
SHEBOYGAN LAKESH 2000    9     340/ 11/ 13 1027.9R
PORT WASHINGTON  1940   13     340/  7/ 14 1026.4S
MILWAUKEE LAKESH 2000   13      10/ 12/ 15   N/A
KENOSHA   LAKESH 2000   15     340/ 10/ 15 1025.1R
$$

TC  - TEMPERATURE IN CELSIUS
VSB - VISIBILITY IN STATUTE MILES
WCI - WIND CHILL INDEX
HX  - HEAT INDEX



USA.gov is the U.S. government's official web portal to all federal, state and local government web resources and services.